Location: Bushrod
(6.3500°N, 10.7833°W)
Time: 17:37:05
(UTC+00:00)

Cosmos 1842 - Pass Details

Date: 17 September 2019
Orbit: 522 x 538 km, 82.5° (Epoch: 20 October)

Event Time Altitude Azimuth Distance (km) Brightness Sun altitude
Rises 19:27:28 0° 16° (NNE) 2,671 6.7 -12.1°
Reaches altitude 10° 19:29:56 10° 31° (NNE) 1,779 5.7 -12.7°
Maximum altitude 19:33:05 24° 85° (E) 1,141 4.3 -13.5°
Enters shadow 19:33:48 22° 102° (ESE) 1,181 4.4 -13.7°
